| time (UTC) | temp F | wind direction | speed knots | gust knots | rain 1hr in | rain 24hr in | rain mn in | humidity % | barometer mb |
| 20260506184525 | 61 | 74 | 1.7 | 4.3 | 0.00 | 0.00 | 0.00 | 81 | 1020.2 |
| 20260506183007 | 61 | 325 | 0.0 | 3.5 | 0.00 | 0.00 | 0.00 | 83 | 1020.1 |
| 20260506181509 | 60 | 296 | 0.0 | 2.6 | 0.00 | 0.00 | 0.00 | 83 | 1020.0 |
| 20260506180052 | 60 | 246 | 0.0 | 3.5 | 0.00 | 0.00 | 0.00 | 83 | 1020.2 |
| 20260506174548 | 59 | 240 | 0.9 | 3.5 | 0.00 | 0.00 | 0.00 | 84 | 1020.1 |
| 20260506173030 | 59 | 240 | 1.7 | 3.5 | 0.00 | 0.00 | 0.00 | 85 | 1020.0 |
| 20260506171532 | 59 | 210 | 0.0 | 4.3 | 0.00 | 0.00 | 0.00 | 85 | 1020.0 |
| 20260506170018 | 59 | 178 | 0.0 | 3.5 | 0.00 | 0.00 | 0.00 | 86 | 1019.9 |
| 20260506164516 | 59 | 178 | 0.0 | 2.6 | 0.00 | 0.00 | 0.00 | 87 | 1019.9 |
| 20260506163018 | 58 | 178 | 0.9 | 4.3 | 0.00 | 0.00 | 0.00 | 86 | 1020.0 |
| 20260506161516 | 58 | 84 | 0.0 | 2.6 | 0.00 | 0.00 | 0.00 | 86 | 1020.0 |
| 20260506160017 | 58 | 84 | 0.0 | 5.2 | 0.00 | 0.00 | 0.00 | 87 | 1019.6 |
| 20260506154514 | 57 | 73 | 0.0 | 2.6 | 0.00 | 0.00 | 0.00 | 89 | 1019.4 |
| 20260506153013 | 56 | 73 | 0.0 | 4.3 | 0.00 | 0.00 | 0.00 | 89 | 1019.2 |
| 20260506151514 | 56 | 65 | 0.0 | 4.3 | 0.00 | 0.00 | 0.00 | 90 | 1019.4 |
| 20260506150056 | 56 | 64 | 0.0 | 0.0 | 0.00 | 0.00 | 0.00 | 90 | 1019.9 |
| 20260506144604 | 56 | 64 | 0.0 | 3.5 | 0.00 | 0.00 | 0.00 | 89 | 1019.8 |
| 20260506143036 | 56 | 64 | 0.0 | 0.0 | 0.00 | 0.00 | 0.00 | 89 | 1019.5 |
| 20260506141534 | 56 | 66 | 0.9 | 4.3 | 0.00 | 0.00 | 0.00 | 89 | 1019.4 |
| 20260506140014 | 56 | 69 | 0.9 | 4.3 | 0.00 | 0.00 | 0.00 | 89 | 1018.8 |
| 20260506134513 | 56 | 53 | 0.0 | 3.5 | 0.00 | 0.00 | 0.00 | 90 | 1018.9 |
| 20260506133054 | 56 | 53 | 0.0 | 2.6 | 0.00 | 0.00 | 0.00 | 90 | 1018.8 |
| 20260506131555 | 56 | 53 | 0.0 | 0.0 | 0.00 | 0.00 | 0.00 | 90 | 1018.7 |
| 20260506130034 | 56 | 53 | 0.0 | 0.0 | 0.00 | 0.00 | 0.00 | 89 | 1018.4 |
| 20260506124533 | 56 | 53 | 0.0 | 0.0 | 0.00 | 0.00 | 0.00 | 89 | 1018.3 |
| 20260506123014 | 56 | 53 | 0.0 | 0.0 | 0.00 | 0.00 | 0.00 | 89 | 1018.2 |
| 20260506121521 | 56 | 53 | 0.0 | 0.0 | 0.00 | 0.00 | 0.00 | 89 | 1018.2 |
| 20260506120113 | 56 | 53 | 0.0 | 0.0 | 0.00 | 0.00 | 0.00 | 88 | 1018.2 |
| 20260506114556 | 57 | 53 | 0.0 | 0.0 | 0.00 | 0.00 | 0.00 | 88 | 1018.1 |
| 20260506113053 | 57 | 53 | 0.0 | 1.7 | 0.00 | 0.00 | 0.00 | 88 | 1018.0 |
| 20260506111534 | 57 | 53 | 0.0 | 0.0 | 0.00 | 0.00 | 0.00 | 88 | 1017.9 |
| 20260506110033 | 57 | 53 | 0.0 | 0.0 | 0.00 | 0.00 | 0.00 | 87 | 1017.7 |
| 20260506104512 | 57 | 53 | 0.9 | 3.5 | 0.00 | 0.00 | 0.00 | 87 | 1017.5 |
| 20260506103013 | 57 | 49 | 0.0 | 3.5 | 0.00 | 0.00 | 0.00 | 87 | 1017.4 |
| 20260506101553 | 57 | 49 | 0.0 | 0.0 | 0.00 | 0.00 | 0.00 | 87 | 1017.2 |
| 20260506100051 | 57 | 49 | 0.0 | 0.0 | 0.00 | 0.00 | 0.00 | 87 | 1017.0 |
| 20260506094534 | 57 | 49 | 0.0 | 0.0 | 0.00 | 0.00 | 0.00 | 87 | 1017.0 |
| 20260506093031 | 57 | 49 | 0.0 | 0.0 | 0.00 | 0.00 | 0.00 | 86 | 1016.9 |
| 20260506091516 | 58 | 48 | 0.0 | 2.6 | 0.00 | 0.00 | 0.00 | 86 | 1016.8 |
| 20260506090017 | 58 | 48 | 0.0 | 0.9 | 0.00 | 0.00 | 0.00 | 85 | 1016.8 |
| 20260506084615 | 58 | 48 | 0.0 | 3.5 | 0.00 | 0.00 | 0.00 | 85 | 1016.7 |
| 20260506083057 | 58 | 154 | 0.0 | 3.5 | 0.00 | 0.00 | 0.00 | 85 | 1016.7 |
| 20260506081559 | 59 | 154 | 0.0 | 3.5 | 0.00 | 0.00 | 0.00 | 85 | 1016.7 |
| 20260506073057 | 59 | 154 | 0.0 | 3.5 | 0.00 | 0.00 | 0.00 | 85 | 1016.4 |
| 20260506071552 | 59 | 154 | 0.0 | 0.0 | 0.00 | 0.00 | 0.00 | 84 | 1016.4 |
| 20260506061513 | 60 | 154 | 0.0 | 2.6 | 0.00 | 0.00 | 0.00 | 83 | 1016.1 |
| 20260506044519 | 60 | 154 | 0.0 | 0.0 | 0.00 | 0.00 | 0.00 | 85 | 1015.6 |
| 20260506043022 | 60 | 154 | 0.0 | 0.0 | 0.00 | 0.00 | 0.00 | 85 | 1015.5 |
| 20260506041558 | 60 | 154 | 0.0 | 0.0 | 0.00 | 0.00 | 0.00 | 85 | 1015.2 |
| 20260506040105 | 60 | 154 | 0.0 | 0.0 | 0.00 | 0.00 | 0.00 | 83 | 1015.2 |
| 20260506034604 | 60 | 154 | 0.0 | 0.0 | 0.00 | 0.00 | 0.00 | 80 | 1014.9 |
| 20260506033051 | 61 | 154 | 0.0 | 0.0 | 0.00 | 0.00 | 0.00 | 76 | 1014.7 |
| 20260506031552 | 62 | 154 | 0.0 | 0.0 | 0.00 | 0.00 | 0.00 | 75 | 1014.7 |
| 20260506030053 | 63 | 154 | 0.0 | 0.0 | 0.00 | 0.00 | 0.00 | 74 | 1014.6 |
| 20260506024554 | 64 | 154 | 0.0 | 0.0 | 0.00 | 0.00 | 0.00 | 73 | 1014.5 |
| 20260506023044 | 64 | 154 | 0.0 | 3.5 | 0.00 | 0.00 | 0.00 | 71 | 1014.3 |
| 20260506021526 | 65 | 154 | 0.0 | 0.9 | 0.00 | 0.00 | 0.00 | 69 | 1014.3 |
| 20260506020026 | 65 | 154 | 0.0 | 1.7 | 0.00 | 0.00 | 0.00 | 70 | 1014.4 |
| 20260506014509 | 65 | 154 | 0.0 | 2.6 | 0.00 | 0.00 | 0.00 | 70 | 1014.3 |
| 20260506013007 | 65 | 78 | 0.0 | 0.0 | 0.00 | 0.00 | 0.00 | 70 | 1014.4 |
| 20260506011602 | 65 | 78 | 0.0 | 4.3 | 0.00 | 0.00 | 0.00 | 69 | 1014.4 |
| 20260506010048 | 66 | 107 | 0.0 | 6.1 | 0.00 | 0.00 | 0.00 | 67 | 1014.4 |
| 20260506004531 | 67 | 126 | 1.7 | 7.0 | 0.00 | 0.00 | 0.00 | 67 | 1014.4 |
| 20260506003029 | 68 | 50 | 0.0 | 5.2 | 0.00 | 0.00 | 0.00 | 66 | 1014.5 |
| 20260506001508 | 66 | 80 | 0.0 | 4.3 | 0.00 | 0.00 | 0.00 | 70 | 1014.5 |
| 20260506000007 | 65 | 28 | 0.0 | 3.5 | 0.00 | 0.00 | 0.00 | 69 | 1014.7 |
| 20260505234543 | 64 | 28 | 0.0 | 0.9 | 0.00 | 0.00 | 0.00 | 72 | 1014.9 |
| 20260505233041 | 64 | 28 | 0.0 | 3.5 | 0.00 | 0.00 | 0.00 | 73 | 1015.1 |
| 20260505231524 | 64 | 28 | 0.0 | 3.5 | 0.00 | 0.00 | 0.00 | 72 | 1015.1 |
| 20260505230021 | 64 | 30 | 0.0 | 4.3 | 0.00 | 0.00 | 0.00 | 73 | 1015.2 |
| 20260505224503 | 64 | 32 | 0.0 | 0.0 | 0.00 | 0.00 | 0.00 | 74 | 1015.2 |
| 20260505223001 | 63 | 32 | 0.0 | 0.0 | 0.00 | 0.00 | 0.00 | 75 | 1015.3 |
| 20260505221551 | 63 | 31 | 0.0 | 0.0 | 0.00 | 0.00 | 0.00 | 76 | 1015.5 |
| 20260505220044 | 62 | 31 | 0.0 | 3.5 | 0.00 | 0.00 | 0.00 | 78 | 1015.5 |
| 20260505214531 | 62 | 29 | 0.0 | 4.3 | 0.00 | 0.00 | 0.00 | 78 | 1015.5 |
| 20260505213024 | 63 | 351 | 1.7 | 7.0 | 0.00 | 0.00 | 0.00 | 76 | 1015.6 |
| 20260505211507 | 63 | 24 | 0.0 | 3.5 | 0.00 | 0.00 | 0.00 | 75 | 1015.6 |
| 20260505210006 | 63 | 26 | 0.0 | 3.5 | 0.00 | 0.00 | 0.00 | 78 | 1015.6 |
| 20260505204548 | 62 | 26 | 0.0 | 4.3 | 0.00 | 0.00 | 0.00 | 77 | 1015.7 |
| 20260505203047 | 61 | 44 | 0.0 | 4.3 | 0.00 | 0.00 | 0.00 | 80 | 1015.8 |
| 20260505201530 | 61 | 355 | 3.5 | 5.2 | 0.00 | 0.00 | 0.00 | 80 | 1015.9 |
| 20260505200040 | 61 | 250 | 0.9 | 4.3 | 0.00 | 0.00 | 0.00 | 78 | 1015.8 |
| 20260505194511 | 60 | 211 | 0.9 | 5.2 | 0.00 | 0.00 | 0.00 | 78 | 1016.0 |
| 20260505193011 | 61 | 259 | 0.0 | 4.3 | 0.00 | 0.00 | 0.00 | 76 | 1015.9 |
| 20260505191553 | 61 | 203 | 0.0 | 3.5 | 0.00 | 0.00 | 0.00 | 77 | 1015.9 |
| 20260505190052 | 61 | 142 | 0.0 | 0.0 | 0.00 | 0.00 | 0.00 | 79 | 1015.8 |